{"data":{"norad_id":66854,"intl_designator":"2025-281G","name":"STARLINK-36087","alt_names":[],"object_type":"PAYLOAD","status":"ACTIVE","operator":null,"country":"US","launch_date":"2025-12-02","launch_site_code":"AFETR","launch_vehicle":null,"mission":null,"orbit_class":"UNKNOWN","rcs_meters":null,"size_class":null,"mass_kg":null,"dimensions":null,"purposes":["comms"],"wikipedia_slug":null,"has_3d_model":false,"image_url":null,"decayed_at":null,"tle_current":{"epoch":"2026-09-20T05:58:42.150144Z","epoch_age_seconds":105794,"freshness":"FRESH","line1":"1 66854U 25281G   26263.24909896  .00009154  00000+0  34175-3 0  9994","line2":"2 66854  42.9993 324.4636 0001525 268.5484  91.5193 15.27580330 45949","mean_motion":15.2758033,"eccentricity":0.0001525,"inclination_deg":42.9993,"raan_deg":324.4636,"arg_perigee_deg":268.5484,"mean_anomaly_deg":91.5193,"bstar":0.00034175,"rev_number":4594,"period_min":94.266728349402,"perigee_km":482.00177717216,"apogee_km":484.09443863007,"semimajor_km":6861.1851079011,"source":"CELESTRAK","updated_at":"2026-09-21T09:00:36.026757Z"}}}